星链-11276 (STARLINK-11276)

导读

STARLINK-11276是美国太空探索技术公司(SpaceX)星链计划中的一颗卫星,于2024年9月25日发射升空,隶属于美国太空探索技术公司的Starlink项目。该卫星旨在为全球提供高速互联网服务,尤其服务偏远地区及网络基础设施薄弱区域,是星链低轨互联网星座组网进程中的一部分,进一步扩充了星座卫星规模。

Basic Information
目录编号:
61244
目录名称:
STARLINK-11276
国际标识:
2024-175B
轨道中心:
EARTH
卫星名称:
星链-11276
卫星全名:
星链-11276 (STARLINK-11276)
卫星状态:
在轨 (已飞行671 天)
发射日期:
2024-09-25 UTC
国别 :
美国 (US)
星等 :
--
Orbit Information
数据来源 国际轨道数据 AOE轨道数据
星历时间 2026-07-27T07:27:21+0800
1天前
查看轨道信息
2026-07-24T23:00:00+0800
3天前
查看轨道信息
半长轴 6737.939km 6737.812km
偏心率 0.0000559 0.0001372
轨道倾角 53.160° 53.162°
近地点辐角 114.696° 140.007°
升交点赤经 89.596° 101.195°
平近点角 245.411° 239.675°
近地点 359.425km 358.75km
远地点 360.179km 360.6km
周期 91.738分钟 91.736分钟
每日圈数 15.69684 15.697281
Detailed Information
固有亮度:
5
最大亮度:
2.5
卫星平台:
Starlink V1.0
覆盖范围:
全球
运营商:
太空探索技术公司
运营商所在国:
美国
制造商(研发单位):
太空探索技术公司
制造商所在国:
美国
使用方式:
暂无
Satellite Introduction
Starlink 计划是 SpaceX 推出的全球卫星互联网项目,通过发射低轨道卫星,为全球尤其是偏远地区提供高速、低延迟的互联网服务。自 2019 年起,Starlink 已部署数千颗卫星,旨在缩小全球数字鸿沟,推动互联网普及。该项目还为军事、航空等行业提供通信支持,带来广泛经济效益。
2D Orbit Map
3D Orbit Map
Orbit Altitude Analysis Chart
Orbit Inclination Analysis Chart
Orbit Comprehensive Analysis Chart
View Comprehensive Chart